Weather History for Brownsville, TX

Change the Weather History Date:

Saturday, December 1, 2012

  Actual Average Record
Temperature  
Mean Temperature 76 °F 65 °F  
Max Temperature 85 °F 75 °F 88 °F (1942)
Min Temperature 67 °F 56 °F 34 °F (1911)
Degree Days  
Heating Degree Days 0 4  
Month to date heating degree days 0 4  
Since 1 July heating degree days 3 58  
Cooling Degree Days 11 4  
Month to date cooling degree days 11 4  
Year to date cooling degree days 4671 3949  
Growing Degree Days 25 (Base 50)    
Moisture  
Dew Point 68 °F    
Average Humidity 78    
Maximum Humidity 100    
Minimum Humidity 55    
Precipitation  
Precipitation 0.00 in 0.04 in 2.35 in (1915)
Month to date precipitation 0.00 0.04  
Year to date precipitation 21.08 26.33  
Sea Level Pressure  
Sea Level Pressure 30.08 in    
Wind  
Wind Speed 11 mph (SE)    
Max Wind Speed 22 mph    
Max Gust Speed 30 mph    
Visibility 10 miles    
Events      
T = Trace of Precipitation, MM = Missing Value Source: NWS Daily Summary

Daily Weather History Graph

Daily Weather History Graph

Search for Another Location

Airport:

Trip Planner

Search our weather history database for the weather conditions in past years. The results will help you decide how hot, cold, wet, or windy it might be!

Date:

Astronomy

Dec. 01, 2012 Rise Set
Actual Time 6:59 AM CST 5:37 PM CST
Civil Twilight 6:34 AM CST 6:02 PM CST
Nautical Twilight 6:06 AM CST 6:31 PM CST
Astronomical Twilight 5:38 AM CST 6:59 PM CST
Moon 8:24 PM CST (12/1) 9:17 AM CST (12/1)
Length of Visible Light 11h 27m
Length of Day
10h 38m
Waning Gibbous, 91% of the Moon is Illuminated
Dec 1
Waning Gibbous
Dec 6
Last Quarter
Dec 13
New
Dec 19
First Quarter
Dec 28
Full

Hourly Weather History & Observations

Time (CST) Temp. Heat Index Dew Point Humidity Pressure Visibility Wind Dir Wind Speed Gust Speed Precip Events Conditions
12:53 AM 70.0 °F - 69.1 °F 97% 30.09 in 10.0 mi SE 4.6 mph - N/A   Clear
1:53 AM 70.0 °F - 69.1 °F 97% 30.09 in 10.0 mi SE 5.8 mph - N/A   Clear
2:53 AM 69.1 °F - 68.0 °F 96% 30.08 in 10.0 mi South 4.6 mph - N/A   Clear
3:53 AM 69.1 °F - 68.0 °F 96% 30.08 in 10.0 mi SE 5.8 mph - N/A   Clear
4:53 AM 68.0 °F - 68.0 °F 100% 30.07 in 10.0 mi SSE 4.6 mph - N/A   Clear
5:53 AM 69.1 °F - 68.0 °F 96% 30.08 in 10.0 mi SSE 4.6 mph - N/A   Scattered Clouds
6:53 AM 68.0 °F - 66.9 °F 96% 30.09 in 8.0 mi SE 3.5 mph - N/A   Clear
7:53 AM 71.1 °F - 70.0 °F 96% 30.11 in 10.0 mi SE 4.6 mph - N/A   Unknown
8:53 AM 73.9 °F - 72.0 °F 93% 30.12 in 10.0 mi SE 10.4 mph - N/A   Clear
9:53 AM 80.1 °F 82.9 °F 69.1 °F 69% 30.13 in 10.0 mi SSE 17.3 mph - N/A   Partly Cloudy
10:53 AM 82.0 °F 84.9 °F 68.0 °F 62% 30.12 in 10.0 mi SSE 18.4 mph - N/A   Mostly Cloudy
11:07 AM 84.2 °F 88.4 °F 69.8 °F 62% 30.12 in 10.0 mi SSE 17.3 mph 24.2 mph N/A   Mostly Cloudy
11:15 AM 82.4 °F 85.4 °F 68.0 °F 62% 30.11 in 10.0 mi SSE 19.6 mph - N/A   Mostly Cloudy
11:53 AM 82.9 °F 85.8 °F 68.0 °F 60% 30.10 in 10.0 mi SSE 18.4 mph 25.3 mph N/A   Mostly Cloudy
12:53 PM 84.0 °F 87.0 °F 68.0 °F 58% 30.06 in 10.0 mi SSE 18.4 mph 26.5 mph N/A   Scattered Clouds
1:53 PM 84.0 °F 87.0 °F 68.0 °F 58% 30.04 in 10.0 mi SSE 20.7 mph 25.3 mph N/A   Scattered Clouds
2:53 PM 84.0 °F 86.3 °F 66.0 °F 55% 30.04 in 10.0 mi SSE 17.3 mph - N/A   Clear
3:53 PM 82.0 °F 84.5 °F 66.9 °F 60% 30.04 in 10.0 mi SSE 19.6 mph - N/A   Mostly Cloudy
4:53 PM 79.0 °F - 69.1 °F 72% 30.04 in 10.0 mi SE 17.3 mph 23.0 mph N/A   Scattered Clouds
5:53 PM 78.1 °F - 69.1 °F 74% 30.05 in 10.0 mi SE 12.7 mph - N/A   Mostly Cloudy
6:53 PM 73.9 °F - 69.1 °F 85% 30.07 in 10.0 mi SE 10.4 mph - N/A   Clear
7:53 PM 73.9 °F - 69.1 °F 85% 30.08 in 10.0 mi SE 10.4 mph - N/A   Clear
8:53 PM 73.0 °F - 69.1 °F 87% 30.09 in 10.0 mi SE 11.5 mph - N/A   Clear
9:53 PM 73.0 °F - 69.1 °F 87% 30.09 in 10.0 mi SE 9.2 mph - N/A   Clear
10:53 PM 71.1 °F - 68.0 °F 90% 30.10 in 10.0 mi SE 6.9 mph - N/A   Clear
11:53 PM 70.0 °F - 66.9 °F 90% 30.10 in 10.0 mi ESE 5.8 mph - N/A   Clear